Regional Weather Roundup
Issued by NWS Boston, MA

Current Version | Previous Version | Text Only | Print | Product List | Glossary On
Versions: 1 2 3 4 5 6 7 8 9 10 11 12 13 14 15 16 17 18 19 20 21 22 23 24 25 26 27 28 29 30 31 32 33 34 35 36 37 38 39 40 41 42 43 44 45 46 47 48 49 50
000
ASUS41 KBOX 050910
RWRBOX

REGIONAL WEATHER ROUNDUP
NATIONAL WEATHER SERVICE TAUNTON MA
500 AM EDT SUN JUL 05 2015

NOTE:  "FAIR" INDICATES FEW OR NO CLOUDS BELOW 12,000 FEET WITH NO
SIGNIFICANT WEATHER AND/OR OBSTRUCTIONS TO VISIBILITY.  THE FOLLOWING
OBSERVATION LOCATIONS DO NOT REPORT PRESENT WEATHER...PROVINCETOWN...
SMITHFIELD...BLOCK ISLAND...KEENE...AND OXFORD.

MAZALL-051000-
EASTERN MASSACHUSETTS

CITY           SKY/WX    TMP DP  RH WIND       PRES   REMARKS
BOSTON         PTCLDY    63  57  81 W8        30.01R
BEVERLY        CLEAR     57  55  93 W3        29.99R
LAWRENCE       CLEAR     58  56  93 CALM      30.02R
BEDFORD        CLEAR     54  52  93 CALM      30.00R
BLUE HILL        N/A     58  55  90 W14       30.01R
NORWOOD        CLEAR     50  49  96 CALM      30.01R
MARSHFIELD     CLEAR     55  55 100 W3        30.02S FOG
PLYMOUTH       CLEAR     50  50 100 CALM      30.01S FOG
TAUNTON        CLEAR     50  48  93 CALM      30.01S FOG
NEW BEDFORD    CLEAR     52  51  97 CALM      30.01R
$$

MAZALL-051000-
CAPE COD AND THE ISLANDS

CITY           SKY/WX    TMP DP  RH WIND       PRES   REMARKS
FALMOUTH       CLEAR     52  50  93 CALM      30.02R
HYANNIS        CLEAR     52  50  93 CALM      30.01R
CHATHAM        CLEAR     55  53  93 W5        30.02R
PROVINCETOWN   CLEAR     57   1  10 W7        30.01S
NANTUCKET      CLEAR     60  55  83 W6        30.01S
MARTHAS VNYRD  CLEAR     47  45  93 CALM      30.02R
$$

MAZALL-051000-
CENTRAL AND WESTERN MASSACHUSETTS

CITY           SKY/WX    TMP DP  RH WIND       PRES   REMARKS
WORCESTER      CLEAR     60  55  83 W13       30.04R
FITCHBURG      CLEAR     59  56  89 CALM      30.02R
ORANGE         FOG       55  55 100 CALM      30.03S VSB 1/4
SPRINGFIELD    FOG       50  50 100 CALM      30.03S VSB 1/2
WESTFIELD      CLEAR     55  54  96 SE3       30.03S FOG
NORTH ADAMS    CLOUDY    56  55  97 CALM      30.06S FOG
PITTSFIELD     FOG       52  52 100 CALM      30.06R VSB 1/4
$$

RIZALL-051000-
RHODE ISLAND

CITY           SKY/WX    TMP DP  RH WIND       PRES   REMARKS
PROVIDENCE     CLEAR     59  57  93 SW5       30.02S
NEWPORT        CLEAR     58  56  93 CALM      30.02S FOG
BLOCK ISLAND   PTCLDY    63  57  82 W6        30.03S
SMITHFIELD     CLEAR     54  48  82 W3        30.02S
WESTERLY       CLEAR     57  55  93 CALM      30.04S FOG
$$

CTZALL-051000-
CONNECTICUT

CITY           SKY/WX    TMP DP  RH WIND       PRES   REMARKS
BRADLEY INTL   CLEAR     55  53  93 CALM      30.03R FOG
HARTFORD       CLEAR     58  56  93 S3        30.04R FOG
BRIDGEPORT     CLEAR     64  60  87 CALM      30.04S
DANBURY        CLEAR     55  52  89 W3        30.06S FOG
GROTON         CLEAR     59  56  89 NE3       30.03R
NEW HAVEN      CLEAR     57  55  93 CALM      30.04S FOG
CHESTER        NOT AVBL
MERIDEN        PTCLDY    56  53  90 CALM      30.04S FOG
WILLIMANTIC    FOG       56  55  97 CALM      30.04S VSB 1/4
OXFORD         CLEAR     57  52  82 CALM      30.07R
$$

MEZ002-015-021-024-NHZ003-005-008-011-012-014-VTZ005-008-051000-
NORTHERN NEW ENGLAND

CITY           SKY/WX    TMP DP  RH WIND       PRES   REMARKS
PORTLAND ME    PTCLDY    57  56  96 CALM      29.98R
BANGOR ME      MOCLDY    57  55  93 CALM      29.96S
CONCORD NH     FOG       54  53  97 CALM      30.01R VSB 1/4
MANCHESTER NH  FOG       55  55 100 CALM      29.99S VSB 1/2
NASHUA NH      CLEAR     55  54  97 CALM      30.02R
PORTSMOUTH NH  PTCLDY    58  57  94 SW6       29.98R FOG
JAFFREY NH     MOCLDY    56  55  97 S6        30.04R FOG
KEENE NH       CLOUDY    57  54  88 CALM      30.04R
BURLINGTON VT  PTCLDY    62  58  86 S3        30.00S
MT. WASHINGTON FOG       45  45 100 NW28G35     N/A  VSB 1/16
$$

NYZ052-076-051000-
EASTERN NEW YORK

CITY           SKY/WX    TMP DP  RH WIND       PRES   REMARKS
ALBANY         PTCLDY    58  56  93 CALM      30.05R FOG
NEW YORK CITY  CLOUDY    70  59  68 NW6       30.05R
$$

ANZALL-051000-
MARINE OBSERVATIONS

STATION/POSITION TIME  TEMP    WIND        PRES    VSBY  WAVE
                       AIR SEA DIR/SP/G                  HT/PER
                 (UTC) (F)     (DEG/KT/KT) (MB)    (MI)  (FT/S)
BOSTON BUOY      0850   61 60  230/  4/  6 1015.9R         1/ 8
BUZZARDS BAY     0800          270/  6/  6 1017.0S
NANTUCKET SOUND  0850   67 65  290/  8/  8 1016.1R         1
MASS BAY-STELLWA 0804   63 61  240/  8/ 10 1014.3S  1 7/8  1/ 8
ISLE OF SHOALS   0900   60     250/  7/  7 1015.0R
S OF BLOCK IS    0808      66                N/A           3/11
$$

......................KEY.........................
  SKY/WX - SKY CONDITION/PRESENT WEATHER
  TMP    - TEMPERATURE IN FAHRENHEIT
  DWPT   - DEWPOINT IN FAHRENHEIT
  RH     - RELATIVE HUMIDITY IN PERCENT
  WIND   - DIRECTION AND SPEED IN MPH
  PRES   - MEAN SEA LEVEL PRESSURE IN INCHES OF HG
  WCI    - WIND CHILL INDEX
  VSB    - VISIBILITY IN MILES
  HX     - HEAT INDEX
  TC     - TEMPERATURE IN CELSIUS
  VRB    - VARIABLE WIND DIRECTION
  N/A    - NOT AVAILABLE


USA.gov is the U.S. government's official web portal to all federal, state and local government web resources and services.